[[{"header":{"parameterUnit":"m.s-1","parameterCategory":2,"la1":30.2991,"la2":30.254,"lo1":-89.0895,"lo2":-89.0444,"dy":0.0017,"dx":0.0017,"nx":28,"ny":28,"refTime":"2026-02-08T03:00:00:Z","depth":"0","parameterNumber":2,"parameterNumberName":"U-component_of_CURRENTS"},"data":[0,0,0,0,0,0,0,0,0,0,0,0,0,0,0,0,0,0,0,0,0,0,0,0,0,0,0,0,0,0,0,0,0,0,0,0,0,0,0,0,0,0,0,0,0,0,0,0,0,0,0,0,0,0,0,0,0,0,0.1954,0.1955,0,0.205,0.2051,0.2052,0.2075,0.2074,0.2073,0.2072,0.218,0.2184,0.2187,0,0,0,0,0,0,0,0,0,0,0,0,0,0.1871,0.1872,0.1954,0.1955,0.1956,0.205,0.2051,0.2053,0.2075,0.2074,0.2073,0.2072,0.2179,0.2183,0.2188,0,0,0,0,0,0,0,0,0,0,0,0,0,0.1931,0.1872,0.1954,0.1978,0.1981,0.205,0.2051,0.2053,0.2075,0.2074,0.2073,0.2072,0.2178,0.2183,0.2188,0.2243,0,0,0.2205,0.2207,0,0,0,0,0,0,0,0,0.1928,0.1934,0.1973,0.1976,0.198,0.2049,0.2062,0.2117,0.2075,0.204,0.2072,0.2071,0.2138,0.2146,0.2168,0.2248,0.2253,0.2205,0.2208,0.2211,0.2212,0,0,0,0,0,0,0,0.1923,0.1931,0.1993,0.1974,0.1979,0.2012,0.2019,0.2073,0.2095,0.2043,0.2045,0.2055,0.214,0.2162,0.217,0.2254,0.2205,0.221,0.2213,0.2215,0.254,0.2546,0,0,0,0,0,0,0.1907,0.1927,0.1989,0.1995,0.195,0.2014,0.2022,0.2028,0.2094,0.2102,0.2056,0.2055,0.2154,0.2164,0.2174,0.2308,0.2211,0.2216,0.2219,0.2535,0.2542,0.2548,0,0,0,0,0,0,0.1905,0.1912,0.1986,0.1963,0.1974,0.2016,0.2024,0.2031,0.2054,0.2103,0.2112,0.2071,0.2153,0.2167,0.2258,0.231,0.2218,0.2223,0.2529,0.2537,0.2545,0.2534,0,0,0,0,0,0,0.1902,0.1911,0.1913,0.1962,0.1975,0.2046,0.2025,0.2033,0.2062,0.2063,0.212,0.2129,0.2154,0.2251,0.2264,0.2315,0.2227,0.2522,0.2532,0.2542,0.2527,0.2541,0.2552,0,0,0,0,0,0.1899,0.1944,0.1912,0.192,0.1975,0.2048,0.2059,0.2085,0.2063,0.2096,0.2143,0.2127,0.2326,0.2258,0.2273,0.2327,0.2517,0.2529,0.2541,0.2522,0.2538,0.2552,0,0,0,0,0,0,0.1931,0.1951,0.1918,0.1967,0.1996,0.2051,0.2091,0.2088,0.2148,0.2148,0.2175,0.2191,0.2307,0.2334,0.2258,0.2466,0.2428,0.2444,0.2409,0.2425,0.2437,0.2453,0.2231,0,0,0,0,0,0.1926,0.1951,0.1971,0.2007,0.2021,0.2042,0.2071,0.2083,0.2139,0.2162,0.2205,0.2278,0.2373,0.2404,0.2496,0.2579,0.262,0.2641,0.2653,0.2662,0.2696,0.2795,0.2816,0.2588,0.2588,0.2587,0,0,0.1949,0.1962,0.1975,0.2012,0.2033,0.2081,0.206,0.2115,0.216,0.2167,0.2258,0.2324,0.2415,0.253,0.2583,0.2547,0.2753,0.2678,0.2684,0.2714,0.2809,0.283,0.2849,0.2596,0.2595,0.2593,0,0,0.2022,0.2012,0.2051,0.2074,0.2103,0.2125,0.2136,0.2188,0.2215,0.2302,0.2342,0.2442,0.2554,0.2638,0.2691,0.2834,0.2828,0.2864,0.2909,0.3003,0.302,0.3036,0.31,0.3122,0.2849,0.2849,0.2849,0,0.205,0.2078,0.2081,0.2123,0.2142,0.2142,0.2188,0.2235,0.2313,0.2345,0.2342,0.2554,0.2619,0.2765,0.2832,0.2856,0.2895,0.2818,0.301,0.3027,0.3043,0.3106,0.313,0.285,0.285,0.285,0.285,0,0.2138,0.2154,0.2192,0.222,0.2252,0.2302,0.2336,0.2381,0.24,0.2439,0.2579,0.2681,0.2796,0.2848,0.2884,0.3047,0.3032,0.3014,0.2943,0.3064,0.3124,0.3149,0.2852,0.2851,0.2851,0.2851,0,0,0.2221,0.2244,0.225,0.2245,0.2295,0.2328,0.2407,0.2472,0.2509,0.2605,0.2682,0.2872,0.2897,0.297,0.3023,0.3119,0.3268,0.3117,0.3121,0.3132,0.3457,0.343,0.3454,0.3259,0.3264,0.3268,0.3442,0,0.228,0.2335,0.2344,0.2397,0.242,0.2432,0.2497,0.2552,0.2605,0.2689,0.2797,0.2908,0.2947,0.2998,0.3108,0.3242,0.3338,0.3222,0.3386,0.3391,0.3311,0.3485,0.3504,0.3661,0.3467,0.3471,0.3474,0,0.2351,0.2368,0.2412,0.2429,0.2441,0.248,0.2532,0.259,0.27,0.2743,0.2855,0.293,0.3117,0.3114,0.3384,0.3299,0.3402,0.3488,0.3495,0.3499,0.3414,0.3522,0.3713,0.3591,0.3512,0.3509,0.3506,0,0.2362,0.2413,0.2429,0.2439,0.2478,0.2497,0.2525,0.2605,0.2644,0.2774,0.2821,0.3014,0.3109,0.3292,0.3476,0.3439,0.3747,0.3698,0.377,0.3766,0.3837,0.3832,0.3896,0.3901,0.3901,0.39,0.39,0,0.2406,0.2421,0.2425,0.2432,0.2453,0.2481,0.2521,0.2573,0.2656,0.2713,0.284,0.2933,0.3162,0.3343,0.3507,0.3729,0.3768,0.3841,0.384,0.3835,0.3828,0.3766,0.3737,0.3907,0.3905,0.3904,0.3903,0,0.241,0.2415,0.2431,0.2451,0.2451,0.2461,0.2489,0.2519,0.2599,0.2681,0.2725,0.2906,0.3145,0.3364,0.3659,0.375,0.3909,0.4023,0.3988,0.3981,0.3907,0.3879,0.385,0.3795,0.4148,0.4148,0.4149,0,0.2409,0.2415,0.2421,0.2409,0.2412,0.2422,0.2425,0.2486,0.2516,0.2665,0.2707,0.2937,0.3097,0.35,0.3766,0.4055,0.3947,0.4173,0.4125,0.3959,0.3929,0.3704,0.3644,0.4216,0.4217,0.4218,0.4219,0,0.2401,0.2401,0.2403,0.2381,0.2369,0.2363,0.2376,0.2394,0.2474,0.2553,0.2682,0.282,0.3208,0.3505,0.3854,0.4055,0.4022,0.4196,0.407,0.4058,0.3783,0.3709,0.3999,0.4228,0.4227,0.4226,0.4226,0.4226,0.2379,0.2375,0.236,0.234,0.2319,0.2296,0.228,0.2321,0.2368,0.2474,0.2622,0.2821,0.3252,0.3767,0.3911,0.4175,0.4071,0.4164,0.4167,0.3964,0.3852,0.4137,0.4316,0.4316,0.4315,0.4315,0.4315,0,0.2332,0.2326,0.2311,0.2265,0.2215,0.2231,0.2228,0.222,0.2259,0.2436,0.2555,0.2968,0.334,0.3711,0.4174,0.4157,0.4018,0.4083,0.3811,0.3776,0.4113,0.4053,0.4126,0.4126,0.4126,0.4126,0.4126,0.4126,0.2298,0.2268,0.2265,0.2164,0.2128,0.2057,0.2048,0.2076,0.2187,0.2373,0.2574,0.2754,0.3257,0.382,0.4075,0.406,0.3831,0.3712,0.3605,0.3884,0.3889,0.3893,0.3824,0.3847,0.3847,0.3162,0.3158,0.3155]},{"header":{"parameterUnit":"m.s-1","parameterCategory":2,"la1":30.2991,"la2":30.254,"lo1":-89.0895,"lo2":-89.0444,"dy":0.0017,"dx":0.0017,"nx":28,"ny":28,"refTime":"2026-02-08T03:00:00:Z","depth":"0","parameterNumber":3,"parameterNumberName":"V-component_of_CURRENTS"},"data":[0,0,0,0,0,0,0,0,0,0,0,0,0,0,0,0,0,0,0,0,0,0,0,0,0,0,0,0,0,0,0,0,0,0,0,0,0,0,0,0,0,0,0,0,0,0,0,0,0,0,0,0,0,0,0,0,0,0,-0.0024,-0.0025,0,-0.0098,-0.0099,-0.0099,-0.0186,-0.0187,-0.0189,-0.019,-0.0274,-0.0275,-0.0276,0,0,0,0,0,0,0,0,0,0,0,0,0,-0.003,-0.0028,-0.0024,-0.0025,-0.0026,-0.0098,-0.0099,-0.0099,-0.0185,-0.0187,-0.0189,-0.0191,-0.0274,-0.0275,-0.0276,0,0,0,0,0,0,0,0,0,0,0,0,0,-0.0056,-0.0028,-0.0024,-0.0079,-0.0084,-0.0097,-0.0099,-0.01,-0.0185,-0.0187,-0.0189,-0.0191,-0.0274,-0.0275,-0.0276,-0.0242,0,0,-0.0281,-0.0281,0,0,0,0,0,0,0,0,-0.0055,-0.0056,-0.007,-0.0075,-0.0081,-0.0136,-0.0132,-0.0148,-0.0185,-0.0146,-0.019,-0.0192,-0.0228,-0.0233,-0.0241,-0.0246,-0.025,-0.0281,-0.0281,-0.0282,-0.0282,0,0,0,0,0,0,0,-0.0052,-0.0054,-0.0052,-0.0071,-0.0078,-0.0124,-0.0129,-0.0135,-0.0173,-0.0149,-0.0156,-0.0165,-0.0231,-0.0239,-0.0243,-0.0251,-0.0281,-0.0282,-0.0283,-0.0283,-0.0171,-0.0168,0,0,0,0,0,0,-0.0039,-0.0051,-0.005,-0.0055,-0.0074,-0.0122,-0.0128,-0.0115,-0.0173,-0.0185,-0.0163,-0.0169,-0.0236,-0.0242,-0.0247,-0.0152,-0.0282,-0.0283,-0.0284,-0.0175,-0.017,-0.0166,0,0,0,0,0,0,-0.0038,-0.0037,-0.0047,-0.0057,-0.0062,-0.0119,-0.0105,-0.0116,-0.013,-0.0184,-0.0196,-0.0168,-0.0238,-0.0245,-0.0227,-0.0158,-0.0284,-0.0285,-0.018,-0.0174,-0.0168,0.0001,0,0,0,0,0,0,-0.0038,-0.0036,-0.0014,-0.0055,-0.0061,-0.0045,-0.0103,-0.0116,-0.0133,-0.0141,-0.0191,-0.0201,-0.024,-0.0224,-0.0228,-0.0162,-0.0286,-0.0184,-0.0177,-0.017,-0.001,0.0011,0.003,0,0,0,0,0,-0.0037,0.001,-0.0012,-0.0012,-0.003,-0.0044,-0.005,-0.0099,-0.013,-0.0122,-0.0142,-0.02,-0.0182,-0.0222,-0.0228,-0.0161,-0.0188,-0.0179,-0.0171,-0.0018,0.0007,0.0029,0,0,0,0,0,0,0.0059,0.0005,-0.0021,0.0019,-0.001,-0.0059,-0.0049,-0.0088,-0.0098,-0.0104,-0.016,-0.0168,-0.012,-0.016,-0.0204,-0.0104,-0.019,-0.0182,-0.0072,-0.0048,-0.0029,0.0012,-0.0287,0,0,0,0,0,0.0082,0.0082,0.0036,0.0072,0.0057,0.0004,-0.0006,-0.0041,-0.0062,-0.0072,-0.0097,-0.0107,-0.0085,-0.0087,-0.0083,-0.0038,-0.0077,0.0006,0.0026,0.0043,0.0076,0.0085,0.0108,-0.0138,-0.0138,-0.0138,0,0,0.0132,0.0103,0.0107,0.0087,0.006,0.0071,-0.0006,-0.0012,0.0018,-0.0074,-0.0026,-0.0041,-0.0056,0.0006,0.0023,-0.0025,0.009,0.0054,0.0068,0.0092,0.0096,0.012,0.0141,-0.0132,-0.0133,-0.0134,0,0,0.0208,0.0203,0.0208,0.0192,0.015,0.0129,0.013,0.009,0.0091,0.0126,0.0091,0.0128,0.0127,0.0154,0.0163,0.0297,0.0198,0.0284,0.041,0.042,0.044,0.0457,0.0419,0.0431,0.0289,0.0289,0.029,0,0.0264,0.027,0.0216,0.0222,0.0228,0.0163,0.019,0.02,0.018,0.0212,0.0164,0.0239,0.0216,0.0325,0.0373,0.0345,0.0303,0.0317,0.0444,0.046,0.0475,0.0432,0.0443,0.0299,0.0298,0.0297,0.0296,0,0.0315,0.0338,0.0352,0.0335,0.0347,0.0361,0.0357,0.0387,0.0381,0.0387,0.048,0.047,0.0511,0.0521,0.0485,0.06,0.0519,0.0468,0.0379,0.051,0.0456,0.0465,0.0312,0.0308,0.0306,0.0303,0,0,0.0361,0.038,0.0374,0.0396,0.0402,0.0413,0.0504,0.0555,0.0619,0.0637,0.0733,0.0797,0.0776,0.0789,0.0758,0.0777,0.0835,0.0671,0.0667,0.0626,0.0813,0.0744,0.0745,0.0787,0.079,0.0793,0.0725,0,0.0399,0.0436,0.0445,0.052,0.0542,0.0563,0.0654,0.0709,0.0749,0.0833,0.087,0.0936,0.0883,0.0899,0.0927,0.086,0.0869,0.0856,0.0701,0.0696,0.0614,0.0759,0.0792,0.0734,0.0733,0.0734,0.0735,0,0.0401,0.0431,0.0491,0.0601,0.0616,0.0672,0.0792,0.0865,0.0985,0.1023,0.1112,0.1113,0.1195,0.1101,0.1091,0.1072,0.0973,0.0907,0.0901,0.0792,0.0648,0.061,0.0749,0.0548,0.0748,0.0747,0.0746,0,0.0379,0.0464,0.0513,0.0538,0.0648,0.0716,0.0794,0.0915,0.1,0.1135,0.12,0.1281,0.1302,0.1251,0.1137,0.1104,0.1078,0.1002,0.0853,0.0842,0.0823,0.0808,0.0753,0.0996,0.0996,0.0996,0.0996,0,0.0383,0.0427,0.0505,0.0528,0.0634,0.0717,0.085,0.0944,0.1093,0.1213,0.1282,0.1377,0.1335,0.1315,0.1198,0.1068,0.1123,0.0919,0.0852,0.088,0.0871,0.0652,0.0536,0.0994,0.0994,0.0995,0.0995,0,0.0342,0.0379,0.0451,0.0571,0.0613,0.0685,0.087,0.0977,0.1108,0.1267,0.1316,0.1437,0.1422,0.1351,0.1246,0.1124,0.0879,0.0932,0.095,0.0889,0.0561,0.0454,0.0275,0.0129,0.0778,0.0776,0.0775,0,0.0323,0.0344,0.0453,0.0503,0.0558,0.068,0.0781,0.0951,0.1077,0.1303,0.1386,0.1442,0.1504,0.1352,0.1185,0.1002,0.0794,0.0849,0.0819,0.0591,0.0423,0.0291,0.0171,0.0841,0.0841,0.084,0.084,0,0.0311,0.0333,0.0394,0.0489,0.0581,0.0715,0.0879,0.0979,0.1192,0.133,0.1509,0.1578,0.149,0.1385,0.1141,0.0989,0.0683,0.0825,0.0618,0.0517,0.0349,0.0158,0.0785,0.0835,0.0835,0.0836,0.0836,0.0836,0.0298,0.0334,0.0405,0.0504,0.0613,0.0771,0.089,0.1068,0.1258,0.1502,0.1562,0.1704,0.1602,0.1317,0.1031,0.0623,0.0572,0.049,0.0389,0.0282,0.0133,0.0725,0.0676,0.0676,0.0676,0.0675,0.0675,0,0.0296,0.035,0.0436,0.0566,0.0695,0.0759,0.0974,0.1107,0.1316,0.1531,0.1682,0.1817,0.1518,0.1213,0.0741,0.0322,0.0106,0.0074,-0.0068,-0.0167,0.0411,0.0407,0.0267,0.0267,0.0267,0.0267,0.0267,0.0268,0.0296,0.0365,0.0418,0.061,0.0718,0.0895,0.1018,0.1203,0.1391,0.1681,0.1863,0.2015,0.201,0.1022,0.0244,-0.003,-0.0445,-0.0518,-0.0753,-0.0306,-0.0274,-0.0244,-0.0273,-0.0554,-0.0555,-0.1292,-0.1298,-0.1303]}],[{"header":{"parameterUnit":"m.s-1","parameterCategory":2,"la1":30.2991,"la2":30.254,"lo1":-89.0895,"lo2":-89.0444,"dy":0.0017,"dx":0.0017,"nx":28,"ny":28,"refTime":"2026-02-08T03:00:00:Z","depth":"2","parameterNumber":2,"parameterNumberName":"U-component_of_CURRENTS"},"data":[0,0,0,0,0,0,0,0,0,0,0,0,0,0,0,0,0,0,0,0,0,0,0,0,0,0,0,0,0,0,0,0,0,0,0,0,0,0,0,0,0,0,0,0,0,0,0,0,0,0,0,0,0,0,0,0,0,0,0.1315,0.1316,0,0.1352,0.1352,0.1352,0.1395,0.1396,0.1396,0.1397,0.1423,0.1423,0.1423,0,0,0,0,0,0,0,0,0,0,0,0,0,0.1348,0.1346,0.1315,0.1316,0.1316,0.1352,0.1352,0.1352,0.1395,0.1396,0.1397,0.1398,0.1423,0.1423,0.1423,0,0,0,0,0,0,0,0,0,0,0,0,0,0.1351,0.1346,0.1315,0.1344,0.1347,0.1352,0.1352,0.1352,0.1394,0.1396,0.1397,0.1398,0.1423,0.1423,0.1423,0.1395,0,0,0.1422,0.1422,0,0,0,0,0,0,0,0,0.1351,0.1349,0.1339,0.1342,0.1345,0.1372,0.1373,0.1367,0.1394,0.1373,0.1397,0.1399,0.1406,0.1407,0.1407,0.1396,0.1397,0.1422,0.1422,0.1422,0.1422,0,0,0,0,0,0,0,0.135,0.1349,0.1327,0.134,0.1344,0.1378,0.1379,0.1372,0.1379,0.1375,0.1379,0.1387,0.1407,0.1408,0.1408,0.1397,0.1422,0.1422,0.1422,0.1422,0.144,0.144,0,0,0,0,0,0,0.1346,0.1347,0.1326,0.1328,0.1355,0.1376,0.1377,0.136,0.138,0.1385,0.1386,0.1389,0.1407,0.1409,0.1409,0.1461,0.1422,0.1422,0.1422,0.1439,0.144,0.1441,0,0,0,0,0,0,0.1346,0.1342,0.1324,0.1343,0.1343,0.1374,0.1355,0.136,0.1387,0.1389,0.1393,0.1411,0.1408,0.141,0.1436,0.146,0.1422,0.1421,0.1438,0.1439,0.144,0.1511,0,0,0,0,0,0,0.1346,0.1341,0.1332,0.1341,0.1342,0.1338,0.1354,0.136,0.139,0.1395,0.141,0.1413,0.1409,0.1437,0.1436,0.1459,0.1421,0.1438,0.1439,0.144,0.1508,0.1514,0.152,0,0,0,0,0,0.1347,0.133,0.133,0.1329,0.1325,0.1338,0.1342,0.1367,0.139,0.1397,0.1423,0.1414,0.1443,0.1437,0.1436,0.1459,0.1437,0.1438,0.144,0.1505,0.1513,0.152,0,0,0,0,0,0,0.1345,0.1333,0.1334,0.1316,0.1331,0.1347,0.1361,0.1379,0.1403,0.1416,0.1424,0.1428,0.1457,0.1444,0.1438,0.1466,0.1437,0.1438,0.1487,0.1494,0.15,0.1502,0.1421,0,0,0,0,0,0.1336,0.1319,0.1323,0.1313,0.1322,0.1345,0.1358,0.1373,0.1396,0.1409,0.1429,0.1443,0.1455,0.1466,0.1467,0.1483,0.1484,0.1495,0.1501,0.1506,0.1506,0.1533,0.1542,0.1445,0.1445,0.1445,0,0,0.1329,0.1327,0.1314,0.1312,0.1329,0.1343,0.1356,0.1379,0.1404,0.1405,0.1455,0.1464,0.1463,0.1488,0.1499,0.1486,0.1537,0.1508,0.1513,0.151,0.1535,0.1545,0.1553,0.1446,0.1446,0.1446,0,0,0.1313,0.1311,0.1293,0.131,0.1334,0.1353,0.1366,0.1395,0.1423,0.1456,0.1473,0.1502,0.1516,0.1531,0.1536,0.157,0.1566,0.1569,0.1606,0.1632,0.1641,0.1648,0.1679,0.1688,0.1574,0.1574,0.1574,0,0.1297,0.1284,0.1295,0.1301,0.1324,0.1363,0.1372,0.1405,0.1444,0.1472,0.1479,0.1531,0.1535,0.1575,0.1593,0.1585,0.1601,0.1584,0.1642,0.1649,0.1656,0.1685,0.1694,0.1578,0.1578,0.1577,0.1577,0,0.1275,0.1277,0.1282,0.1297,0.1325,0.1343,0.1391,0.143,0.1474,0.1506,0.1563,0.1581,0.1613,0.162,0.162,0.167,0.1668,0.1648,0.1629,0.167,0.1698,0.1706,0.1583,0.1582,0.1581,0.158,0,0,0.1176,0.1244,0.1243,0.1272,0.1326,0.135,0.1406,0.1459,0.151,0.1556,0.1615,0.1649,0.1676,0.1683,0.1696,0.1721,0.1789,0.1712,0.1711,0.175,0.1861,0.1802,0.1805,0.1787,0.1788,0.179,0.1868,0,0.1144,0.1173,0.1211,0.1256,0.1281,0.1349,0.1404,0.1468,0.1529,0.16,0.1643,0.17,0.1698,0.1728,0.1757,0.1779,0.1813,0.177,0.1806,0.1807,0.1757,0.1813,0.1663,0.1715,0.1876,0.1878,0.1879,0,0.1088,0.1128,0.1166,0.1262,0.1278,0.1319,0.1425,0.1478,0.1583,0.1631,0.17,0.1742,0.1811,0.1793,0.1866,0.1844,0.1861,0.187,0.1873,0.1796,0.1764,0.1695,0.1725,0.1893,0.1892,0.1891,0.189,0,0.1028,0.1088,0.1132,0.1162,0.1273,0.1314,0.138,0.1487,0.1553,0.1663,0.1717,0.1798,0.1853,0.1886,0.1934,0.1905,0.2006,0.1962,0.1926,0.1922,0.1787,0.1769,0.2007,0.2007,0.2007,0.2007,0.2007,0,0.0977,0.1009,0.1116,0.1147,0.1221,0.1299,0.1388,0.1465,0.1575,0.1664,0.1739,0.1818,0.188,0.1951,0.1965,0.1991,0.2039,0.1945,0.1941,0.1808,0.1791,0.1928,0.1917,0.201,0.2009,0.2009,0.2008,0,0.0923,0.0976,0.1044,0.1163,0.12,0.1266,0.1403,0.1463,0.1569,0.1684,0.1726,0.1854,0.1952,0.2011,0.2079,0.2031,0.2055,0.205,0.1896,0.1871,0.1941,0.1933,0.1996,0.1995,0.1994,0.1993,0.1992,0,0.0909,0.0936,0.1064,0.1105,0.1166,0.1265,0.1329,0.1455,0.1528,0.171,0.1761,0.1897,0.2,0.2081,0.2033,0.2046,0.2092,0.188,0.1776,0.1951,0.1941,0.1936,0.193,0.1639,0.1635,0.1632,0.163,0,0.0898,0.0943,0.1006,0.1089,0.1158,0.1246,0.1351,0.1407,0.1559,0.1665,0.1817,0.1915,0.1998,0.1955,0.1951,0.1913,0.1857,0.1815,0.2061,0.1655,0.1618,0.1607,0.1612,0.1603,0.1606,0.1608,0.161,0.1611,0.0893,0.093,0.0995,0.1071,0.1141,0.121,0.1263,0.1367,0.1484,0.1598,0.174,0.1797,0.1832,0.1732,0.1712,0.1639,0.173,0.1617,0.1625,0.1636,0.1571,0.1532,0.1491,0.1493,0.1495,0.1496,0.1498,0,0.0874,0.0902,0.0968,0.1047,0.1094,0.1153,0.1256,0.1292,0.1394,0.147,0.1566,0.1443,0.145,0.1498,0.1358,0.1332,0.1296,0.1275,0.1236,0.1263,0.1286,0.1202,0.1025,0.1024,0.1023,0.1021,0,0,0.0857,0.0883,0.0914,0.0969,0.1025,0.1077,0.1121,0.1176,0.1223,0.1217,0.1198,0.1276,0.14,0.1167,0.1163,0.1093,0.1155,0.1032,0.1408,0.1386,0.1408,0.1479,0.1378,0,0,0,0,0]},{"header":{"parameterUnit":"m.s-1","parameterCategory":2,"la1":30.2991,"la2":30.254,"lo1":-89.0895,"lo2":-89.0444,"dy":0.0017,"dx":0.0017,"nx":28,"ny":28,"refTime":"2026-02-08T03:00:00:Z","depth":"2","parameterNumber":3,"parameterNumberName":"V-component_of_CURRENTS"},"data":[0,0,0,0,0,0,0,0,0,0,0,0,0,0,0,0,0,0,0,0,0,0,0,0,0,0,0,0,0,0,0,0,0,0,0,0,0,0,0,0,0,0,0,0,0,0,0,0,0,0,0,0,0,0,0,0,0,0,-0.0484,-0.0485,0,-0.0523,-0.0523,-0.0524,-0.056,-0.056,-0.0561,-0.0561,-0.0608,-0.0609,-0.061,0,0,0,0,0,0,0,0,0,0,0,0,0,-0.0425,-0.0426,-0.0484,-0.0485,-0.0485,-0.0523,-0.0523,-0.0524,-0.056,-0.056,-0.0561,-0.0561,-0.0608,-0.0609,-0.061,0,0,0,0,0,0,0,0,0,0,0,0,0,-0.0455,-0.0426,-0.0484,-0.0508,-0.051,-0.0523,-0.0523,-0.0524,-0.0559,-0.056,-0.0561,-0.0561,-0.0608,-0.0609,-0.061,-0.0604,0,0,-0.0614,-0.0615,0,0,0,0,0,0,0,0,-0.0454,-0.0457,-0.0504,-0.0506,-0.0509,-0.0538,-0.052,-0.0551,-0.0559,-0.054,-0.0561,-0.0562,-0.0585,-0.0588,-0.0593,-0.0606,-0.0608,-0.0614,-0.0615,-0.0615,-0.0616,0,0,0,0,0,0,0,-0.0451,-0.0456,-0.0499,-0.0504,-0.0507,-0.0511,-0.0516,-0.0526,-0.0558,-0.0542,-0.0545,-0.055,-0.0587,-0.0592,-0.0595,-0.0609,-0.0614,-0.0615,-0.0616,-0.0616,-0.0654,-0.0655,0,0,0,0,0,0,-0.0448,-0.0454,-0.0498,-0.05,-0.0483,-0.0512,-0.0517,-0.0527,-0.0558,-0.0563,-0.0549,-0.0551,-0.059,-0.0593,-0.0597,-0.0616,-0.0615,-0.0617,-0.0617,-0.0654,-0.0654,-0.0655,0,0,0,0,0,0,-0.0446,-0.0451,-0.0496,-0.0478,-0.0484,-0.0512,-0.0523,-0.0528,-0.0549,-0.0563,-0.0569,-0.0566,-0.059,-0.0595,-0.0627,-0.0617,-0.0617,-0.0618,-0.0654,-0.0654,-0.0655,-0.0639,0,0,0,0,0,0,-0.0444,-0.0451,-0.0464,-0.0478,-0.0485,-0.0507,-0.0522,-0.0528,-0.055,-0.0553,-0.058,-0.0584,-0.0591,-0.0625,-0.0628,-0.0619,-0.0619,-0.0653,-0.0654,-0.0654,-0.0639,-0.0638,-0.0638,0,0,0,0,0,-0.0442,-0.0464,-0.0464,-0.047,-0.05,-0.0507,-0.0511,-0.0532,-0.055,-0.0555,-0.0586,-0.0584,-0.063,-0.0627,-0.063,-0.0621,-0.0653,-0.0654,-0.0654,-0.0639,-0.0638,-0.0638,0,0,0,0,0,0,-0.0472,-0.047,-0.0471,-0.0499,-0.05,-0.0513,-0.0531,-0.0539,-0.0566,-0.0578,-0.0595,-0.0602,-0.0624,-0.0629,-0.0626,-0.0634,-0.0637,-0.0639,-0.0624,-0.0624,-0.0624,-0.0605,-0.062,0,0,0,0,0,-0.0476,-0.048,-0.048,-0.0505,-0.0506,-0.0517,-0.0528,-0.0534,-0.0556,-0.0569,-0.059,-0.0611,-0.0625,-0.0633,-0.0648,-0.0655,-0.0666,-0.065,-0.0649,-0.0649,-0.0637,-0.067,-0.0671,-0.0657,-0.0657,-0.0657,0,0,-0.0496,-0.0497,-0.0502,-0.0508,-0.0516,-0.0504,-0.0526,-0.054,-0.0536,-0.0569,-0.0591,-0.0616,-0.063,-0.0641,-0.0649,-0.0646,-0.0657,-0.065,-0.0649,-0.0637,-0.0671,-0.0672,-0.0673,-0.0657,-0.0657,-0.0657,0,0,-0.0506,-0.0536,-0.0519,-0.0515,-0.0513,-0.0518,-0.0521,-0.0533,-0.0548,-0.0562,-0.0588,-0.0616,-0.0632,-0.0644,-0.0649,-0.0656,-0.066,-0.0654,-0.063,-0.0663,-0.0664,-0.0666,-0.0673,-0.0676,-0.0648,-0.0648,-0.0648,0,-0.0522,-0.0502,-0.052,-0.0496,-0.0491,-0.052,-0.0493,-0.0514,-0.0537,-0.0545,-0.0567,-0.0606,-0.0629,-0.0635,-0.0638,-0.0653,-0.0664,-0.063,-0.0662,-0.0664,-0.0665,-0.0673,-0.0676,-0.0647,-0.0647,-0.0647,-0.0647,0,-0.0493,-0.0483,-0.0483,-0.0451,-0.0455,-0.0447,-0.046,-0.0475,-0.05,-0.0513,-0.054,-0.0583,-0.0599,-0.0612,-0.0626,-0.064,-0.0642,-0.0663,-0.0661,-0.0666,-0.0674,-0.0677,-0.0646,-0.0646,-0.0647,-0.0647,0,0,-0.0482,-0.0458,-0.0451,-0.0426,-0.0424,-0.0422,-0.0427,-0.0425,-0.0429,-0.047,-0.0472,-0.0517,-0.0548,-0.0557,-0.0587,-0.0617,-0.0645,-0.0638,-0.064,-0.064,-0.0698,-0.0657,-0.0656,-0.0674,-0.0675,-0.0675,-0.0696,0,-0.0434,-0.038,-0.0381,-0.0341,-0.0314,-0.034,-0.0341,-0.0357,-0.0386,-0.0407,-0.0459,-0.048,-0.0524,-0.0534,-0.0574,-0.0628,-0.0652,-0.0635,-0.0697,-0.0698,-0.0658,-0.0658,-0.0646,-0.0659,-0.0699,-0.07,-0.07,0,-0.0365,-0.0342,-0.029,-0.0269,-0.0261,-0.0253,-0.0258,-0.0262,-0.0305,-0.0326,-0.0364,-0.0409,-0.0455,-0.0499,-0.0588,-0.0574,-0.0627,-0.0674,-0.0677,-0.0642,-0.0662,-0.0664,-0.0663,-0.0705,-0.0705,-0.0704,-0.0704,0,-0.0312,-0.0267,-0.0228,-0.0219,-0.0211,-0.0203,-0.0208,-0.0238,-0.024,-0.028,-0.0283,-0.0354,-0.0379,-0.0469,-0.0561,-0.0577,-0.0655,-0.0693,-0.0702,-0.0699,-0.07,-0.0696,-0.0751,-0.0751,-0.0751,-0.0751,-0.0751,0,-0.0243,-0.0206,-0.0204,-0.0183,-0.0155,-0.0163,-0.0146,-0.0164,-0.018,-0.0165,-0.0243,-0.0243,-0.0374,-0.0434,-0.0535,-0.0612,-0.0635,-0.0687,-0.0702,-0.0693,-0.0688,-0.0739,-0.0738,-0.0752,-0.0752,-0.0752,-0.0751,0,-0.0192,-0.0177,-0.0142,-0.0133,-0.0128,-0.0119,-0.0109,-0.0096,-0.0115,-0.0094,-0.0098,-0.016,-0.0225,-0.0347,-0.0475,-0.0555,-0.0652,-0.0673,-0.0634,-0.0644,-0.0682,-0.0679,-0.069,-0.0689,-0.0688,-0.0687,-0.0686,0,-0.0162,-0.0139,-0.0125,-0.0106,-0.0103,-0.0085,-0.0066,-0.0072,-0.0045,-0.0034,-0.0011,-0.0061,-0.0067,-0.0236,-0.0398,-0.0541,-0.0594,-0.0619,-0.0652,-0.0661,-0.0676,-0.0675,-0.0674,-0.0652,-0.0651,-0.065,-0.065,0,-0.0132,-0.0136,-0.0119,-0.0075,-0.005,-0.0015,0.002,0.0056,0.0077,0.0125,0.0186,0.0185,0.003,-0.0107,-0.031,-0.0426,-0.0599,-0.0604,-0.064,-0.0656,-0.0624,-0.0638,-0.0639,-0.0643,-0.0643,-0.0644,-0.0644,-0.0644,-0.0133,-0.012,-0.0093,-0.0043,0.0,0.0074,0.0136,0.0199,0.0286,0.0394,0.035,0.0371,0.0152,-0.008,-0.027,-0.0485,-0.0508,-0.0597,-0.0601,-0.0606,-0.0584,-0.055,-0.055,-0.055,-0.0551,-0.0551,-0.0551,0,-0.0121,-0.009,-0.0051,0.0023,0.0106,0.0122,0.0221,0.032,0.0478,0.0525,0.0604,0.0424,0.025,0.0004,-0.0296,-0.0475,-0.0518,-0.0535,-0.0565,-0.0571,-0.0577,-0.0556,-0.0514,-0.0514,-0.0514,-0.0514,0,0,-0.0117,-0.0063,-0.0025,0.012,0.0193,0.0338,0.0421,0.0564,0.0638,0.0719,0.0713,0.0656,0.0322,0.0121,-0.0154,-0.0322,-0.0395,-0.0354,-0.0371,-0.0381,-0.0384,-0.0609,-0.0582,0,0,0,0,0]}],[{"header":{"parameterUnit":"m.s-1","parameterCategory":2,"la1":30.2991,"la2":30.254,"lo1":-89.0895,"lo2":-89.0444,"dy":0.0017,"dx":0.0017,"nx":28,"ny":28,"refTime":"2026-02-08T03:00:00:Z","depth":"4","parameterNumber":2,"parameterNumberName":"U-component_of_CURRENTS"},"data":[0,0,0,0,0,0,0,0,0,0,0,0,0,0,0,0,0,0,0,0,0,0,0,0,0,0,0,0,0,0,0,0,0,0,0,0,0,0,0,0,0,0,0,0,0,0,0,0,0,0,0,0,0,0,0,0,0,0,0.0701,0.0701,0,0.073,0.073,0.073,0.0753,0.0754,0.0754,0.0755,0.0748,0.0747,0.0746,0,0,0,0,0,0,0,0,0,0,0,0,0,0.0652,0.0652,0.0701,0.0702,0.0702,0.073,0.073,0.073,0.0753,0.0754,0.0754,0.0755,0.0748,0.0747,0.0746,0,0,0,0,0,0,0,0,0,0,0,0,0,0.0673,0.0652,0.0701,0.0719,0.0721,0.073,0.073,0.073,0.0753,0.0754,0.0754,0.0755,0.0748,0.0747,0.0746,0.0725,0,0,0.0743,0.0743,0,0,0,0,0,0,0,0,0.0672,0.0675,0.0716,0.0718,0.072,0.0741,0.071,0.0728,0.0753,0.0738,0.0755,0.0756,0.0743,0.0743,0.0743,0.0725,0.0725,0.0743,0.0743,0.0742,0.0742,0,0,0,0,0,0,0,0.0671,0.0674,0.0709,0.0716,0.0719,0.0721,0.0725,0.0713,0.0733,0.0739,0.0742,0.0749,0.0744,0.0744,0.0743,0.0725,0.0743,0.0742,0.0742,0.0741,0.0746,0.0747,0,0,0,0,0,0,0.0673,0.0672,0.0709,0.0711,0.0701,0.0722,0.0726,0.0731,0.0734,0.0737,0.0748,0.075,0.0745,0.0744,0.0743,0.0772,0.0742,0.0741,0.0741,0.0746,0.0746,0.0747,0,0,0,0,0,0,0.0671,0.0675,0.0707,0.0694,0.0699,0.0722,0.0728,0.0732,0.0748,0.0742,0.0743,0.0764,0.0746,0.0744,0.075,0.077,0.0741,0.074,0.0745,0.0746,0.0747,0.0795,0,0,0,0,0,0,0.067,0.0675,0.0683,0.0694,0.07,0.072,0.0728,0.0732,0.0752,0.0755,0.0755,0.0755,0.0746,0.0752,0.0749,0.0768,0.0739,0.0744,0.0745,0.0747,0.0793,0.0798,0.0802,0,0,0,0,0,0.0668,0.0672,0.0683,0.0687,0.0709,0.0721,0.0723,0.074,0.0752,0.0758,0.0765,0.0755,0.0759,0.0752,0.0748,0.0767,0.0743,0.0745,0.0746,0.079,0.0797,0.0802,0,0,0,0,0,0,0.0647,0.0675,0.0687,0.0698,0.0714,0.0726,0.0736,0.0748,0.0758,0.0765,0.0759,0.0759,0.077,0.0761,0.0753,0.0773,0.0751,0.0752,0.0786,0.0791,0.0796,0.0793,0.0738,0,0,0,0,0,0.0649,0.0664,0.0686,0.0694,0.0706,0.0724,0.0733,0.0747,0.0757,0.0763,0.0767,0.077,0.0771,0.0776,0.0769,0.0778,0.0772,0.079,0.0794,0.0799,0.0794,0.0803,0.0809,0.0753,0.0753,0.0752,0,0,0.0641,0.0661,0.0668,0.0692,0.0707,0.0723,0.0731,0.0751,0.0767,0.0758,0.0781,0.0782,0.0775,0.0787,0.0793,0.0786,0.0814,0.0801,0.0804,0.0797,0.0806,0.0811,0.0816,0.0754,0.0753,0.0753,0,0,0.0635,0.0655,0.0669,0.0686,0.0716,0.0728,0.0738,0.0762,0.0778,0.0795,0.0798,0.0809,0.0812,0.0815,0.0815,0.0839,0.0834,0.0846,0.0874,0.0884,0.0888,0.0892,0.0905,0.0909,0.0855,0.0856,0.0856,0,0.0626,0.065,0.0672,0.0691,0.0709,0.0734,0.0751,0.0767,0.079,0.0804,0.0808,0.0828,0.0821,0.0841,0.0855,0.0849,0.0858,0.0855,0.089,0.0894,0.0897,0.0908,0.0913,0.0858,0.0858,0.0858,0.0857,0,0.0632,0.0656,0.0665,0.0701,0.0719,0.0738,0.0767,0.079,0.0814,0.0828,0.0857,0.0858,0.0873,0.0878,0.0873,0.0902,0.0903,0.0891,0.0876,0.0906,0.0916,0.092,0.0862,0.0861,0.086,0.0859,0,0,0.0598,0.0659,0.0663,0.0687,0.0731,0.0744,0.0778,0.0811,0.0838,0.0862,0.0893,0.0903,0.0916,0.0917,0.0924,0.0935,0.0968,0.0932,0.0931,0.0945,0.1003,0.0962,0.0961,0.0972,0.0973,0.0974,0.1006,0,0.0598,0.0636,0.0668,0.0703,0.0725,0.0765,0.0792,0.0825,0.0857,0.0891,0.0907,0.0934,0.093,0.0952,0.0962,0.0961,0.0979,0.0961,0.0971,0.0971,0.0931,0.0964,0.0976,0.1009,0.101,0.101,0.1011,0,0.0595,0.0624,0.0659,0.0716,0.073,0.0754,0.0811,0.0843,0.0892,0.0918,0.0954,0.0973,0.1001,0.0991,0.1013,0.1009,0.1012,0.1009,0.101,0.0953,0.0936,0.0969,0.1017,0.1017,0.1016,0.1016,0.1015,0,0.056,0.0618,0.0647,0.0666,0.0728,0.0756,0.0795,0.085,0.0883,0.0946,0.0978,0.101,0.1037,0.1043,0.1054,0.104,0.1074,0.1048,0.1015,0.1013,0.1019,0.1014,0.1064,0.1064,0.1064,0.1064,0.1064,0,0.0546,0.0569,0.0637,0.065,0.0686,0.0744,0.0789,0.0834,0.0901,0.0938,0.0997,0.1031,0.1053,0.1081,0.1074,0.1063,0.1094,0.1023,0.1018,0.104,0.1037,0.1022,0.1017,0.1065,0.1065,0.1065,0.1064,0,0.0495,0.0546,0.0574,0.0643,0.0669,0.0693,0.0781,0.0813,0.0894,0.0949,0.0976,0.1051,0.1086,0.1111,0.1122,0.1087,0.108,0.1072,0.1112,0.1109,0.1005,0.1002,0.1019,0.1018,0.1017,0.1016,0.1015,0,0.0474,0.0483,0.0546,0.0567,0.06,0.0655,0.0693,0.0788,0.0829,0.0952,0.0969,0.1048,0.1086,0.1074,0.1098,0.1095,0.1082,0.1075,0.1016,0.1006,0.1,0.0999,0.0997,0.1014,0.1013,0.1013,0.1013,0,0.0412,0.0432,0.0451,0.0496,0.0539,0.0588,0.0659,0.068,0.0795,0.0879,0.0942,0.098,0.1023,0.1033,0.1057,0.1047,0.107,0.1063,0.1064,0.1008,0.1,0.0995,0.0994,0.1009,0.101,0.101,0.101,0,0.0352,0.0352,0.0383,0.0422,0.0478,0.0522,0.0558,0.0626,0.0684,0.0828,0.0843,0.0935,0.1007,0.1011,0.1026,0.1024,0.0991,0.0944,0.095,0.0954,0.0919,0.0897,0.0875,0,0,0,0,0,0.0303,0.0311,0.032,0.0369,0.0421,0.0466,0.0544,0.0587,0.0697,0.0717,0.0784,0.0828,0.0875,0.092,0.09,0.098,0.0982,0.0953,0.0927,0.099,0.0994,0.0958,0,0,0,0,0,0,0.0272,0.028,0.0293,0.0322,0.0356,0.0416,0.0466,0.0529,0.055,0.066,0.0686,0.0781,0.0828,0.0879,0.0888,0.09,0.0866,0.1013,0.1011,0.0987,0.0991,0.0994,0.0959,0,0,0,0,0]},{"header":{"parameterUnit":"m.s-1","parameterCategory":2,"la1":30.2991,"la2":30.254,"lo1":-89.0895,"lo2":-89.0444,"dy":0.0017,"dx":0.0017,"nx":28,"ny":28,"refTime":"2026-02-08T03:00:00:Z","depth":"4","parameterNumber":3,"parameterNumberName":"V-component_of_CURRENTS"},"data":[0,0,0,0,0,0,0,0,0,0,0,0,0,0,0,0,0,0,0,0,0,0,0,0,0,0,0,0,0,0,0,0,0,0,0,0,0,0,0,0,0,0,0,0,0,0,0,0,0,0,0,0,0,0,0,0,0,0,-0.0188,-0.0188,0,-0.0193,-0.0193,-0.0193,-0.0197,-0.0197,-0.0197,-0.0198,-0.0202,-0.0202,-0.0202,0,0,0,0,0,0,0,0,0,0,0,0,0,-0.0161,-0.0162,-0.0188,-0.0188,-0.0188,-0.0193,-0.0193,-0.0193,-0.0197,-0.0197,-0.0197,-0.0198,-0.0202,-0.0202,-0.0202,0,0,0,0,0,0,0,0,0,0,0,0,0,-0.0169,-0.0162,-0.0188,-0.0191,-0.0192,-0.0193,-0.0193,-0.0193,-0.0197,-0.0197,-0.0197,-0.0198,-0.0202,-0.0202,-0.0202,-0.0198,0,0,-0.0202,-0.0202,0,0,0,0,0,0,0,0,-0.0169,-0.017,-0.0191,-0.0191,-0.0192,-0.0195,-0.0185,-0.0195,-0.0197,-0.0194,-0.0198,-0.0198,-0.02,-0.02,-0.0199,-0.0198,-0.0198,-0.0202,-0.0202,-0.0202,-0.0202,0,0,0,0,0,0,0,-0.0168,-0.017,-0.0189,-0.0191,-0.0191,-0.0186,-0.0187,-0.0187,-0.0195,-0.0194,-0.0195,-0.0197,-0.02,-0.0199,-0.0199,-0.0198,-0.0202,-0.0202,-0.0202,-0.0202,-0.0238,-0.0239,0,0,0,0,0,0,-0.017,-0.017,-0.0189,-0.0189,-0.0181,-0.0186,-0.0188,-0.0193,-0.0195,-0.0196,-0.0197,-0.0197,-0.0199,-0.02,-0.02,-0.0217,-0.0202,-0.0202,-0.0202,-0.0237,-0.0238,-0.0239,0,0,0,0,0,0,-0.017,-0.0172,-0.0188,-0.018,-0.0182,-0.0187,-0.0192,-0.0193,-0.0197,-0.0197,-0.0198,-0.0201,-0.0199,-0.02,-0.0207,-0.0216,-0.0202,-0.0202,-0.0236,-0.0238,-0.0239,-0.0237,0,0,0,0,0,0,-0.0169,-0.0172,-0.018,-0.018,-0.0182,-0.0189,-0.0192,-0.0193,-0.0198,-0.0199,-0.02,-0.0201,-0.02,-0.0207,-0.0207,-0.0216,-0.0202,-0.0235,-0.0237,-0.0238,-0.0235,-0.0238,-0.024,0,0,0,0,0,-0.0168,-0.0175,-0.0181,-0.0183,-0.0192,-0.019,-0.019,-0.0193,-0.0198,-0.0198,-0.0205,-0.0201,-0.0219,-0.0207,-0.0207,-0.0216,-0.0234,-0.0236,-0.0238,-0.0234,-0.0237,-0.024,0,0,0,0,0,0,-0.0177,-0.0176,-0.0182,-0.0192,-0.0192,-0.0191,-0.0193,-0.0196,-0.02,-0.0204,-0.0205,-0.0205,-0.0217,-0.022,-0.0207,-0.0236,-0.0229,-0.0232,-0.0227,-0.0229,-0.0231,-0.0221,-0.0202,0,0,0,0,0,-0.0181,-0.0182,-0.0184,-0.0193,-0.0192,-0.0194,-0.0196,-0.0197,-0.02,-0.0202,-0.0205,-0.0215,-0.0225,-0.023,-0.0236,-0.0245,-0.0245,-0.0256,-0.0258,-0.026,-0.0253,-0.0264,-0.0266,-0.0247,-0.0247,-0.0247,0,0,-0.0189,-0.0189,-0.0192,-0.0194,-0.0195,-0.0189,-0.0195,-0.0196,-0.0196,-0.0202,-0.0206,-0.0218,-0.023,-0.0242,-0.0248,-0.0246,-0.0268,-0.0263,-0.0264,-0.0256,-0.0267,-0.0268,-0.027,-0.0248,-0.0248,-0.0248,0,0,-0.0192,-0.0203,-0.0198,-0.0195,-0.0194,-0.0193,-0.0193,-0.0194,-0.0199,-0.0203,-0.0214,-0.0232,-0.024,-0.0253,-0.026,-0.028,-0.0277,-0.029,-0.0291,-0.0302,-0.0303,-0.0304,-0.031,-0.0312,-0.0293,-0.0293,-0.0293,0,-0.0201,-0.0195,-0.0198,-0.0188,-0.0184,-0.0193,-0.0183,-0.0189,-0.0194,-0.0198,-0.0204,-0.0233,-0.0244,-0.0263,-0.0275,-0.0282,-0.0287,-0.0276,-0.0302,-0.0303,-0.0304,-0.0311,-0.0312,-0.0293,-0.0293,-0.0293,-0.0293,0,-0.0191,-0.0188,-0.0185,-0.0174,-0.0172,-0.0165,-0.017,-0.0176,-0.0184,-0.019,-0.0211,-0.0232,-0.0247,-0.0265,-0.0274,-0.0296,-0.0297,-0.03,-0.029,-0.0306,-0.0312,-0.0314,-0.0293,-0.0293,-0.0293,-0.0293,0,0,-0.0196,-0.0179,-0.0177,-0.0162,-0.016,-0.0151,-0.0159,-0.0159,-0.0157,-0.0183,-0.0184,-0.0224,-0.0239,-0.025,-0.0274,-0.0293,-0.0311,-0.0302,-0.0302,-0.0297,-0.0333,-0.0326,-0.0327,-0.0318,-0.0319,-0.0319,-0.0335,0,-0.0183,-0.0155,-0.0155,-0.0131,-0.0113,-0.0123,-0.0122,-0.0129,-0.0142,-0.0148,-0.0188,-0.0198,-0.0233,-0.0242,-0.0269,-0.0295,-0.0315,-0.0306,-0.0327,-0.0328,-0.031,-0.0329,-0.032,-0.0336,-0.0336,-0.0337,-0.0337,0,-0.0164,-0.0144,-0.0116,-0.0091,-0.0085,-0.0078,-0.007,-0.0071,-0.0094,-0.0105,-0.0136,-0.0161,-0.0201,-0.0223,-0.028,-0.0272,-0.0302,-0.0327,-0.0328,-0.032,-0.0324,-0.0318,-0.034,-0.034,-0.0339,-0.0339,-0.0339,0,-0.0138,-0.0114,-0.0086,-0.0077,-0.0057,-0.0051,-0.0046,-0.0058,-0.0047,-0.0079,-0.0072,-0.013,-0.0143,-0.02,-0.0261,-0.0267,-0.0315,-0.0326,-0.0349,-0.0349,-0.0349,-0.0348,-0.0361,-0.0361,-0.0361,-0.0361,-0.0361,0,-0.011,-0.0085,-0.007,-0.0048,-0.0009,-0.0018,0.0013,0.0003,-0.0002,0.0021,-0.0045,-0.0043,-0.0137,-0.0178,-0.0244,-0.03,-0.0302,-0.0348,-0.0353,-0.035,-0.0349,-0.035,-0.0349,-0.0361,-0.0361,-0.0361,-0.0361,0,-0.0069,-0.0069,-0.0021,0.0003,0.001,0.0042,0.007,0.0096,0.0071,0.0098,0.0092,0.0032,-0.0032,-0.0124,-0.0209,-0.0262,-0.0326,-0.0346,-0.0331,-0.0336,-0.0357,-0.0356,-0.037,-0.037,-0.037,-0.037,-0.037,0,-0.0037,-0.0012,0.0032,0.0066,0.0082,0.0119,0.0152,0.0139,0.0165,0.0148,0.017,0.0107,0.0057,-0.0057,-0.0169,-0.0295,-0.0316,-0.0346,-0.0363,-0.0355,-0.0358,-0.0357,-0.0356,-0.037,-0.0369,-0.0369,-0.0369,0,0.0042,0.0052,0.0097,0.0149,0.019,0.0239,0.0273,0.0291,0.0279,0.0267,0.0244,0.0162,0.009,-0.0037,-0.0139,-0.0231,-0.0327,-0.0345,-0.0346,-0.0363,-0.0354,-0.0358,-0.0357,-0.0369,-0.0369,-0.0369,-0.0369,0,0.0116,0.0157,0.0197,0.0241,0.0291,0.0326,0.0341,0.0358,0.0365,0.0329,0.0324,0.0216,0.0147,-0.0002,-0.0094,-0.0191,-0.0218,-0.0244,-0.0251,-0.0253,-0.0224,-0.0197,-0.0165,0,0,0,0,0,0.0188,0.0221,0.028,0.0316,0.036,0.0369,0.0409,0.0412,0.0393,0.0394,0.0353,0.0279,0.0123,0.0046,-0.0046,-0.0099,-0.0238,-0.021,-0.0272,-0.0367,-0.0368,-0.0355,0,0,0,0,0,0,0.0241,0.0297,0.0297,0.0356,0.0377,0.042,0.0437,0.0431,0.0419,0.0389,0.0307,0.0258,0.0104,0.0173,-0.005,-0.0082,-0.0131,-0.0289,-0.0291,-0.0367,-0.0368,-0.0368,-0.0355,0,0,0,0,0]}]]